TimeCST,TemperatureF,Dew PointF,Humidity,Sea Level PressureIn,VisibilityMPH,Wind Direction,Wind SpeedMPH,Gust SpeedMPH,PrecipitationIn,Events,Conditions,WindDirDegrees,DateUTC
12:55 AM,36.0,34.0,93,30.11,10.0,NNW,3.5,-,N/A,,Clear,330,2013-02-15 06:55:00
1:55 AM,36.3,33.6,90,30.12,10.0,NW,2.3,-,N/A,,Clear,320,2013-02-15 07:55:00
2:55 AM,36.0,34.0,93,30.10,10.0,North,3.5,-,N/A,,Clear,350,2013-02-15 08:55:00
3:55 AM,35.6,34.0,94,30.12,10.0,North,2.3,-,N/A,,Clear,350,2013-02-15 09:55:00
4:55 AM,34.7,33.3,94,30.12,10.0,North,4.6,-,N/A,,Clear,350,2013-02-15 10:55:00
5:55 AM,35.6,34.3,95,30.13,10.0,NNW,4.6,-,N/A,,Clear,330,2013-02-15 11:55:00
6:55 AM,38.7,37.0,94,30.16,10.0,North,5.8,-,N/A,,Clear,350,2013-02-15 12:55:00
7:55 AM,45.3,39.4,80,30.18,10.0,North,8.1,-,N/A,,Clear,350,2013-02-15 13:55:00
8:55 AM,51.8,41.2,67,30.17,10.0,NNE,8.1,-,N/A,,Clear,30,2013-02-15 14:55:00
9:08 AM,53.6,41.0,62,30.15,10.0,NNE,6.9,-,N/A,,Clear,20,2013-02-15 15:08:00
9:56 AM,58.5,38.8,48,30.18,10.0,Variable,5.8,-,N/A,,Clear,0,2013-02-15 15:56:00
10:26 AM,60.8,37.4,42,30.15,10.0,NE,9.2,-,N/A,,Clear,40,2013-02-15 16:26:00
10:55 AM,61.0,38.1,43,30.16,10.0,Variable,3.5,-,N/A,,Clear,0,2013-02-15 16:55:00
11:58 AM,62.6,36.1,37,30.13,10.0,NNW,3.5,-,N/A,,Clear,330,2013-02-15 17:58:00
12:55 PM,62.2,38.1,41,30.09,10.0,South,8.1,-,N/A,,Partly Cloudy,180,2013-02-15 18:55:00
1:56 PM,62.6,42.1,47,30.07,10.0,SSW,10.4,-,N/A,,Partly Cloudy,210,2013-02-15 19:56:00
2:56 PM,61.9,40.6,46,30.06,10.0,SSW,9.2,-,N/A,,Partly Cloudy,210,2013-02-15 20:56:00
3:55 PM,62.1,39.9,44,30.04,10.0,SW,9.2,-,N/A,,Partly Cloudy,230,2013-02-15 21:55:00
4:55 PM,59.7,41.4,51,30.04,10.0,SW,5.8,-,N/A,,Mostly Cloudy,230,2013-02-15 22:55:00
5:55 PM,56.5,42.6,60,30.04,10.0,West,4.6,-,N/A,,Mostly Cloudy,260,2013-02-15 23:55:00
6:55 PM,55.2,42.8,63,30.05,10.0,West,8.1,-,N/A,,Partly Cloudy,260,2013-02-16 00:55:00
7:55 PM,53.4,43.2,68,30.08,10.0,West,6.9,-,N/A,,Partly Cloudy,270,2013-02-16 01:55:00
8:55 PM,50.5,43.2,76,30.08,10.0,West,8.1,-,N/A,,Scattered Clouds,280,2013-02-16 02:55:00
9:55 PM,47.5,43.0,84,30.07,10.0,WNW,6.9,-,N/A,,Mostly Cloudy,290,2013-02-16 03:55:00
10:55 PM,47.1,42.8,85,30.07,10.0,NW,6.9,-,N/A,,Scattered Clouds,310,2013-02-16 04:55:00
11:55 PM,47.1,42.8,85,30.06,10.0,WNW,10.4,-,N/A,,Scattered Clouds,290,2013-02-16 05:55:00